#timestamp,LO_Frequency,Hit 
1501354815.2,286047019.0,N
1501354835.0,286047018.9,N
1501354835.9,286047018.9,N
1501354855.8,286047019.6,N
1501354875.6,286047021.0,N
1501354895.4,286047021.5,N
1501354915.2,286047021.4,N
1501354935.1,286047021.9,N
1501354936.0,286047021.9,N
1501354955.8,286047021.9,N
1501354975.6,286047022.8,N
1501354995.5,286047021.7,N
1501355015.3,286047019.2,N
1501355035.1,286047021.4,N
1501355055.9,286047019.4,N
1501355075.7,286047021.8,N
1501355095.5,286047020.7,N
1501355115.4,286047020.8,N
1501355135.2,286047023.3,N
1501355155.0,286047022.9,N
1501355155.9,286047022.9,N
1501355175.8,286047022.9,N
1501355195.6,286047023.1,N
1501355215.4,286047021.0,N
1501355235.2,286047020.9,N
1501355255.1,286047024.6,N
1501355256.0,286047024.6,N
1501355275.8,286047025.1,N
1501355295.6,286047023.9,N
1501355315.5,286047027.7,N
1501355335.3,286047025.3,N
1501355355.1,286047027.3,N
1501355375.9,286047028.1,N
1501355395.7,286047026.1,N
1501355415.5,286047026.2,N
1501355435.4,286047027.8,N
1501355455.2,286047025.4,N
1501355475.0,286047026.3,N
1501355475.9,286047026.3,N
1501355495.7,286047025.6,N
1501355515.6,286047026.5,N
1501355535.4,286047026.5,N
1501355555.2,286047026.1,N
1501355575.1,286047025.5,N
1501355576.0,286047025.5,N
1501355595.8,286047026.3,N
1501355615.6,286047025.4,N
1501355635.5,286047028.0,N
1501355655.3,286047027.9,N
1501355675.1,286047027.4,N
1501355695.9,286047027.3,N
1501355715.7,286047029.5,N
1501355735.5,286047029.5,N
1501355755.3,286047029.4,N
1501355775.2,286047029.6,N
1501355795.0,286047027.4,N
1501355795.9,286047027.4,N
1501355815.7,286047026.9,N
1501355835.6,286047029.6,N
1501355855.4,286047028.6,N
1501355875.2,286047029.8,N
1501355895.1,286047028.9,N
1501355896.0,286047028.9,N
1501355915.8,286047031.6,N
1501355935.6,286047028.7,N
1501355955.5,286047028.8,N
1501355975.3,286047029.4,N
1501355995.1,286047029.7,N
1501356015.8,286047031.5,N
1501356035.7,286047031.5,N
1501356055.5,286047030.8,N
1501356075.3,286047033.2,N
1501356095.2,286047030.9,N
1501356115.9,286047030.9,N
1501356135.7,286047032.1,N
1501356155.6,286047032.8,N
1501356175.4,286047030.6,N
1501356195.2,286047030.1,N
1501356215.0,286047032.5,N
1501356216.0,286047032.5,N
1501356235.8,286047032.3,N
1501356255.6,286047031.9,N
1501356275.4,286047032.0,N
1501356295.3,286047032.2,N
1501356315.1,286047032.3,N
1501356335.8,286047032.1,N
1501356355.7,286047032.7,N
1501356375.5,286047033.9,N
1501356395.3,286047033.8,N
1501356415.2,286047037.5,N
1501356435.9,286047034.9,N
1501356455.7,286047035.2,N
1501356475.6,286047035.1,N
1501356495.4,286047034.3,N
1501356515.2,286047033.5,N
1501356535.0,286047035.2,N
1501356535.9,286047035.2,N
1501356555.8,286047036.3,N
1501356575.6,286047036.7,N
1501356595.4,286047039.2,N
1501356615.3,286047037.1,N
1501356635.1,286047038.3,N
1501356636.0,286047038.3,N
1501356655.8,286047037.5,N
1501356675.7,286047038.7,N
1501356695.5,286047036.8,N
1501356715.3,286047036.8,N
1501356735.2,286047037.9,N
1501356755.9,286047036.8,N
1501356775.7,286047035.8,N
1501356795.5,286047035.5,N
1501356815.4,286047035.3,N
1501356835.2,286047035.3,N
1501356855.0,286047037.1,N
1501356855.9,286047037.1,N
1501356875.8,286047037.2,N
1501356895.6,286047037.4,N
1501356915.4,286047039.3,N
1501356935.3,286047041.2,N
1501356955.1,286047038.1,N
1501356956.0,286047038.1,N
1501356975.8,286047038.8,N
1501356995.7,286047040.7,N
1501357015.5,286047039.1,N
1501357035.3,286047038.7,N
1501357055.1,286047040.6,N
1501357075.9,286047040.3,N
1501357095.7,286047040.3,N
1501357115.5,286047042.2,N
1501357135.4,286047041.0,N
1501357155.2,286047042.7,N
1501357175.0,286047041.9,N
1501357175.9,286047041.9,N
1501357195.8,286047042.5,N
1501357215.6,286047044.0,N
1501357235.4,286047044.1,N
1501357255.3,286047044.0,N
1501357275.1,286047044.4,N
1501357276.0,286047044.4,N
1501357295.8,286047044.1,N
1501357315.7,286047043.8,N
1501357335.5,286047044.2,N
1501357355.3,286047044.0,N
1501357375.1,286047044.1,N
1501357395.9,286047045.3,N
1501357415.7,286047043.5,N
1501357435.5,286047045.1,N
1501357455.4,286047045.7,N
1501357475.2,286047045.8,N
1501357495.0,286047044.3,N
1501357495.9,286047044.3,N
1501357515.8,286047046.0,N
1501357535.6,286047047.2,N
1501357555.4,286047044.9,N
1501357575.3,286047045.6,N
1501357595.1,286047047.3,N
1501357596.0,286047047.3,N
1501357615.8,286047046.9,N
1501357635.6,286047049.2,N
1501357655.5,286047047.2,N
1501357675.3,286047045.2,N
1501357695.1,286047044.5,N
1501357715.9,286047045.9,N
1501357735.7,286047043.0,N
1501357755.5,286047045.3,N
1501357775.4,286047044.5,N
1501357795.2,286047049.1,N
1501357815.0,286047046.5,N
1501357815.9,286047046.5,N
1501357835.8,286047047.0,N
1501357855.6,286047047.9,N
1501357875.4,286047047.9,N
1501357895.3,286047047.8,N
1501357915.1,286047048.6,N
1501357916.0,286047048.6,N
1501357935.8,286047048.0,N
1501357955.6,286047050.5,N
1501357975.5,286047050.2,N
1501357995.3,286047049.5,N
1501358015.1,286047049.6,N
1501358035.9,286047051.9,N
1501358055.7,286047049.4,N
1501358075.5,286047052.2,N
1501358095.4,286047049.9,N
1501358115.2,286047049.6,N
1501358135.0,286047050.7,N
1501358135.9,286047050.7,N
1501358155.7,286047049.9,N
1501358175.6,286047049.9,N
1501358195.4,286047049.3,N
1501358215.2,286047049.8,N
1501358235.1,286047051.4,N
1501358236.0,286047051.4,N
1501358255.8,286047051.2,N
1501358275.6,286047051.8,N
1501358295.5,286047052.1,N
1501358315.3,286047049.6,N
1501358335.1,286047049.5,N
1501358355.9,286047050.0,N
1501358375.7,286047049.8,N
1501358395.5,286047051.8,N
